TimeCDT,TemperatureF,Dew PointF,Humidity,Sea Level PressureIn,VisibilityMPH,Wind Direction,Wind SpeedMPH,Gust SpeedMPH,PrecipitationIn,Events,Conditions,WindDirDegrees,DateUTC
12:15 AM,88.0,60.4,39,30.06,10.0,ESE,8.1,-,N/A,,Clear,110,2013-09-05 05:15:00
12:35 AM,87.3,61.2,41,30.06,10.0,East,5.8,-,N/A,,Clear,100,2013-09-05 05:35:00
12:55 AM,86.5,61.7,43,30.06,10.0,ESE,5.8,-,N/A,,Clear,120,2013-09-05 05:55:00
1:15 AM,86.0,62.6,45,30.06,10.0,East,4.6,-,N/A,,Clear,100,2013-09-05 06:15:00
1:35 AM,85.5,63.3,47,30.06,10.0,East,5.8,-,N/A,,Clear,100,2013-09-05 06:35:00
1:55 AM,85.1,63.9,49,30.06,10.0,East,3.5,-,N/A,,Clear,100,2013-09-05 06:55:00
2:15 AM,84.6,63.7,49,30.06,10.0,East,4.6,-,N/A,,Clear,100,2013-09-05 07:15:00
2:35 AM,84.2,63.5,50,30.05,10.0,East,4.6,-,N/A,,Clear,100,2013-09-05 07:35:00
2:55 AM,83.5,63.3,50,30.05,10.0,East,4.6,-,N/A,,Clear,90,2013-09-05 07:55:00
3:15 AM,82.9,63.0,51,30.05,10.0,East,4.6,-,N/A,,Clear,100,2013-09-05 08:15:00
3:35 AM,82.4,63.1,52,30.05,10.0,East,5.8,-,N/A,,Clear,90,2013-09-05 08:35:00
3:55 AM,81.9,63.7,54,30.06,10.0,East,3.5,-,N/A,,Clear,100,2013-09-05 08:55:00
4:15 AM,81.7,64.2,55,30.05,10.0,East,5.8,-,N/A,,Clear,90,2013-09-05 09:15:00
4:35 AM,81.3,64.6,57,30.05,10.0,ESE,4.6,-,N/A,,Clear,110,2013-09-05 09:35:00
4:55 AM,81.0,64.9,58,30.06,10.0,East,5.8,-,N/A,,Clear,100,2013-09-05 09:55:00
5:15 AM,80.6,65.5,60,30.06,10.0,East,5.8,-,N/A,,Clear,80,2013-09-05 10:15:00
5:35 AM,80.1,65.7,61,30.06,10.0,East,4.6,-,N/A,,Clear,90,2013-09-05 10:35:00
5:50 AM,78.8,66.2,65,30.06,13.0,East,6.9,-,N/A,,Clear,80,2013-09-05 10:50:00
5:55 AM,79.7,66.2,63,30.06,10.0,East,3.5,-,N/A,,Clear,90,2013-09-05 10:55:00
6:47 AM,78.8,66.2,65,30.08,13.0,East,5.8,-,N/A,,Clear,100,2013-09-05 11:47:00
7:47 AM,78.8,68.0,69,30.09,13.0,East,5.8,-,N/A,,Clear,90,2013-09-05 12:47:00
8:47 AM,80.6,68.0,65,30.11,13.0,East,11.5,-,N/A,,Clear,90,2013-09-05 13:47:00
9:47 AM,84.2,68.0,58,30.12,13.0,ESE,8.1,-,N/A,,Partly Cloudy,110,2013-09-05 14:47:00
10:48 AM,87.8,68.0,52,30.13,13.0,ESE,9.2,-,N/A,,Partly Cloudy,120,2013-09-05 15:48:00
11:47 AM,91.4,66.2,43,30.12,13.0,ESE,4.6,-,N/A,,Clear,120,2013-09-05 16:47:00
1:47 PM,93.2,64.4,38,30.09,13.0,East,4.6,-,N/A,,Scattered Clouds,90,2013-09-05 18:47:00
2:47 PM,95.0,62.6,34,30.06,13.0,East,9.2,-,N/A,,Scattered Clouds,90,2013-09-05 19:47:00
3:50 PM,96.8,55.4,25,30.04,13.0,Calm,Calm,-,N/A,,Scattered Clouds,0,2013-09-05 20:50:00
4:47 PM,98.6,57.2,25,30.02,15.0,East,6.9,-,N/A,,Scattered Clouds,100,2013-09-05 21:47:00
5:49 PM,98.6,51.8,21,30.02,13.0,NNE,6.9,-,N/A,,Partly Cloudy,20,2013-09-05 22:49:00
6:47 PM,96.8,57.2,27,30.01,15.0,ENE,3.5,-,N/A,,Partly Cloudy,70,2013-09-05 23:47:00
7:57 PM,93.2,57.2,30,30.02,13.0,East,6.9,-,N/A,,Clear,100,2013-09-06 00:57:00
8:50 PM,93.2,57.2,30,30.04,15.0,East,8.1,-,N/A,,Clear,90,2013-09-06 01:50:00
9:47 PM,91.4,57.2,31,30.05,15.0,East,8.1,-,N/A,,Clear,100,2013-09-06 02:47:00
10:15 PM,90.1,55.0,30,30.06,10.0,ESE,6.9,-,N/A,,Clear,110,2013-09-06 03:15:00
10:35 PM,89.6,55.4,31,30.06,10.0,ESE,5.8,-,N/A,,Clear,110,2013-09-06 03:35:00
10:55 PM,88.9,55.6,32,30.07,10.0,ESE,5.8,-,N/A,,Clear,110,2013-09-06 03:55:00
11:15 PM,88.2,55.8,33,30.07,10.0,East,5.8,-,N/A,,Clear,100,2013-09-06 04:15:00
11:35 PM,88.0,55.9,34,30.07,10.0,East,5.8,-,N/A,,Clear,100,2013-09-06 04:35:00
11:55 PM,87.1,56.7,35,30.07,10.0,East,4.6,-,N/A,,Clear,100,2013-09-06 04:55:00